Weather observations for the past three days for
Milledgeville, Baldwin County Airport
Imperial (Metric)
Date Time (edt) Wind (mph) Vis. (mi.) Weather Sky Cond. Temperature (ºF) Relative Humidity Wind Chill (°F) Heat Index (°F) Pressure Precipitation (in)
Air Dwpt 6 hour altimeter (in) sea level (mb) 1 hr 3 hr 6 hr
Max. Min.
12 13:15 N 5 10.00 Fair CLR 93.2 66.2 41% 96 30.07 0.0
12 12:55 NW 6 10.00 Fair CLR 91.4 66.2 44% 94 30.08 0.0
12 12:35 Calm 10.00 Fair CLR 91.4 66.2 44% 94 30.08 0.0
12 12:15 E 6 6.00 Fair with Haze CLR 91.4 68 46% 96 30.08 0.0
12 11:55 Calm 10.00 Fair CLR 89.6 68 49% 93 30.08 0.0
12 11:35 Calm 10.00 Fair CLR 89.6 68 49% 93 30.08 0.0
12 11:15 Vrbl 3 10.00 Fair CLR 87.8 69.8 55% 93 30.08 0.0
12 10:55 Vrbl 3 10.00 Fair CLR 87.8 69.8 55% 93 30.08 0.0
12 10:35 Calm 10.00 Fair CLR 86 71.6 62% 92 30.08 0.0
12 10:15 Calm 10.00 Fair CLR 86 71.6 62% 92 30.07 0.0
12 09:55 Calm 10.00 Fair CLR 84.2 71.6 66% 90 30.07 0.0
12 09:35 E 3 10.00 Fair CLR 82.4 71.6 70% 87 30.06 0.0
12 09:15 Calm 10.00 Fair CLR 80.6 71.6 74% 85 30.06 0.0
12 08:55 N 3 10.00 Fair CLR 80.6 71.6 74% 85 30.05 0.0
12 08:35 Vrbl 3 10.00 Fair CLR 77 73.4 89% 78 30.05 0.0
12 08:15 Calm 10.00 Fair CLR 77 71.6 83% 78 30.05 0.0
12 07:55 W 5 10.00 Fair CLR 75.2 71.6 89% 75 30.04 0.0
12 07:35 Calm 10.00 Fair CLR 73.4 71.6 94% 30.03 0.0
12 07:15 Calm 10.00 Partly Cloudy SCT065 73.4 71.6 94% 30.03 0.0
12 06:55 Calm 10.00 Mostly Cloudy BKN060 71.6 71.6 100% 30.03 0.0
12 06:35 Calm 10.00 Fair CLR 71.6 71.6 100% 30.02 0.0
12 06:15 Calm 10.00 Fair CLR 71.6 71.6 100% 30.01 0.0
12 05:55 W 3 10.00 Fair CLR 71.6 71.6 100% 30.01 0.0
12 05:35 Calm 10.00 Fair CLR 73.4 71.6 94% 30.01 0.0
12 05:15 Calm 10.00 Fair CLR 73.4 73.4 100% 30.01 0.0
12 04:55 Calm 10.00 Fair CLR 73.4 73.4 100% 30 0.0
12 04:35 Calm 10.00 Fair CLR 73.4 73.4 100% 30 0.0
12 04:15 Calm 10.00 Fair CLR 73.4 73.4 100% 30 0.0
12 03:55 Calm 10.00 Fair CLR 73.4 73.4 100% 30.01 0.0
12 03:35 Calm 10.00 Fair CLR 73.4 73.4 100% 30.01 0.0
12 03:15 Calm 10.00 Fair CLR 73.4 71.6 94% 30 0.0
12 02:55 Calm 10.00 Fair CLR 73.4 71.6 94% 30 0.0
12 02:35 Calm 10.00 Fair CLR 73.4 71.6 94% 30 0.0
12 02:15 Calm 10.00 Fair CLR 75.2 71.6 89% 75 30 0.0
12 01:55 Calm 10.00 Fair CLR 75.2 71.6 89% 75 29.99 0.0
12 01:35 Calm 10.00 Fair CLR 75.2 71.6 89% 75 29.99 0.0
12 01:15 Calm 10.00 Fair CLR 75.2 71.6 89% 75 30 0.0
12 00:55 Calm 10.00 Fair CLR 77 69.8 79% 79 30 0.0
12 00:35 Calm 10.00 Fair CLR 77 69.8 79% 79 30 0.0
12 00:15 Calm 8.00 Fair CLR 80.6 69.8 70% 84 30 0.0
11 23:55 N 3 4.00 Fair with Haze CLR 82.4 68 62% 85 30 0.0
11 23:35 Calm 10.00 Fair CLR 80.6 69.8 70% 84 30 0.0
11 23:15 Calm 10.00 Fair CLR 78.8 71.6 79% 82 30 0.0
11 22:55 Calm 10.00 Fair CLR 80.6 71.6 74% 85 30 0.0
11 22:35 Calm 10.00 A Few Clouds FEW065 80.6 71.6 74% 85 29.99 0.0
11 22:15 Calm 10.00 Partly Cloudy SCT065 80.6 71.6 74% 85 29.99 0.0
11 21:55 Calm 10.00 Partly Cloudy SCT070 80.6 71.6 74% 85 29.98 0.0
11 21:35 Calm 10.00 Mostly Cloudy BKN070 82.4 71.6 70% 87 29.98 0.0
11 21:15 Calm 10.00 Fair CLR 82.4 69.8 66% 86 29.97 0.0
11 20:55 Calm 10.00 Fair CLR 84.2 69.8 62% 88 29.97 0.0
11 20:35 Calm 10.00 Fair CLR 87.8 69.8 55% 93 29.97 0.0
11 20:15 Calm 10.00 Fair CLR 89.6 66.2 46% 92 29.96 0.0
11 19:55 Calm 10.00 Fair CLR 91.4 64.4 41% 93 29.96 0.0
11 19:35 N 6 10.00 Fair CLR 91.4 64.4 41% 93 29.96 0.0
11 19:15 N 3 10.00 Fair CLR 91.4 62.6 38% 92 29.96 0.0
11 18:55 W 3 10.00 Fair CLR 93.2 62.6 36% 94 29.96 0.0
11 18:35 W 7 10.00 A Few Clouds FEW070 93.2 62.6 36% 94 29.96 0.0
11 18:15 Calm 10.00 Partly Cloudy SCT070 93.2 64.4 39% 95 29.95 0.0
11 17:55 Vrbl 6 10.00 A Few Clouds FEW065 93.2 62.6 36% 94 29.96 0.0
11 17:35 Vrbl 5 10.00 Partly Cloudy SCT065 93.2 64.4 39% 95 29.96 0.0
11 17:15 Calm 10.00 Fair CLR 93.2 64.4 39% 95 29.96 0.0
11 16:55 E 5 10.00 Fair CLR 93.2 64.4 39% 95 29.96 0.0
11 16:35 Vrbl 6 10.00 A Few Clouds FEW070 93.2 62.6 36% 94 29.96 0.0
11 16:15 Calm 10.00 A Few Clouds FEW065 91.4 64.4 41% 93 29.97 0.0
11 15:55 Vrbl 3 10.00 Mostly Cloudy BKN060 91.4 64.4 41% 93 29.97 0.0
11 15:35 NE 7 10.00 Partly Cloudy SCT060 91.4 64.4 41% 93 29.97 0.0
11 15:15 Vrbl 3 10.00 Partly Cloudy SCT060 91.4 64.4 41% 93 29.98 0.0
11 14:55 Calm 10.00 Partly Cloudy SCT060 89.6 66.2 46% 92 29.97 0.0
11 14:35 Calm 10.00 Fair CLR 91.4 64.4 41% 93 29.97 0.0
11 14:15 Vrbl 5 10.00 Fair CLR 89.6 64.4 43% 91 29.98 0.0
11 13:55 Calm 10.00 A Few Clouds FEW055 89.6 66.2 46% 92 29.98 0.0
11 13:35 Calm 10.00 Fair CLR 89.6 66.2 46% 92 29.99 0.0
11 13:15 Vrbl 7 10.00 Fair CLR 89.6 66.2 46% 92 29.99 0.0
11 12:55 NW 3 10.00 Fair CLR 87.8 66.2 49% 90 30 0.0
11 12:35 NE 7 10.00 Fair CLR 87.8 66.2 49% 90 30 0.0
11 12:15 Vrbl 5 10.00 Fair CLR 86 64.4 49% 87 30 0.0
11 11:55 Vrbl 5 10.00 Fair CLR 86 64.4 49% 87 30 0.0
11 11:35 Vrbl 3 9.00 Fair CLR 86 66.2 52% 88 30 0.0
11 11:15 Vrbl 7 10.00 Fair CLR 86 64.4 49% 87 30 0.0
11 10:55 E 6 10.00 Fair CLR 84.2 66.2 55% 87 30.01 0.0
11 10:35 E 8 10.00 Fair CLR 84.2 66.2 55% 87 30.01 0.0
11 10:15 E 8 10.00 Fair CLR 84.2 64.4 51% 86 30 0.0
11 09:55 Vrbl 6 G 14 10.00 Fair CLR 82.4 66.2 58% 85 30 0.0
11 09:35 Calm 10.00 Fair CLR 80.6 66.2 62% 83 30 0.0
11 09:15 Calm 10.00 Fair CLR 80.6 68 66% 83 30 0.0
11 08:55 N 6 10.00 Fair CLR 78.8 68 70% 81 30 0.0
11 08:35 N 6 10.00 Fair CLR 77 68 74% 79 30 0.0
11 08:15 NW 5 10.00 Fair CLR 77 68 74% 79 29.99 0.0
11 07:55 Vrbl 3 10.00 Fair CLR 75.2 69.8 83% 75 29.99 0.0
11 07:35 Calm 10.00 Fair CLR 73.4 69.8 89% 29.98 0.0
11 06:55 W 5 10.00 Fair CLR 71.6 68 88% 29.98 0.0
11 06:35 W 5 10.00 Fair CLR 69.8 68 94% 29.97 0.0
11 06:15 Calm 10.00 Fair CLR 71.6 68 88% 29.97 0.0
11 05:55 W 3 10.00 Fair CLR 71.6 68 88% 29.96 0.0
11 05:35 NW 5 10.00 Fair CLR 73.4 68 83% 29.96 0.0
11 05:15 NW 5 10.00 Fair CLR 73.4 68 83% 29.95 0.0
11 04:55 Vrbl 5 10.00 Fair CLR 73.4 68 83% 29.95 0.0
11 04:35 W 5 10.00 Fair CLR 73.4 68 83% 29.94 0.0
11 04:15 NW 6 10.00 Fair CLR 73.4 68 83% 29.94 0.0
11 03:55 W 8 10.00 Fair CLR 75.2 68 78% 76 29.94 0.0
11 03:35 NW 7 10.00 Fair CLR 75.2 69.8 83% 75 29.94 0.0
11 03:15 NW 5 10.00 Fair CLR 75.2 69.8 83% 75 29.94 0.0
11 02:55 NW 6 10.00 Fair CLR 75.2 69.8 83% 75 29.94 0.0
11 02:35 NW 6 10.00 Fair CLR 75.2 69.8 83% 75 29.94 0.0
11 02:15 W 6 10.00 Fair CLR 75.2 69.8 83% 75 29.94 0.0
11 01:55 NW 8 10.00 Fair CLR 75.2 69.8 83% 75 29.94 0.0
11 01:35 W 7 10.00 Fair CLR 75.2 69.8 83% 75 29.94 0.0
11 01:15 W 7 10.00 Fair CLR 77 69.8 79% 79 29.95 0.0
11 00:35 W 5 4.00 Fair with Haze CLR 77 69.8 79% 79 29.94 0.0
11 00:15 W 6 10.00 Fair CLR 77 69.8 79% 79 29.95 0.0
10 23:55 W 5 10.00 Fair CLR 77 69.8 79% 79 29.94 0.0
10 23:35 W 3 10.00 Fair CLR 77 69.8 79% 79 29.95 0.0
10 23:15 W 3 10.00 Fair CLR 78.8 68 70% 81 29.94 0.0
10 22:55 W 5 10.00 Fair CLR 78.8 69.8 74% 81 29.94 0.0
10 22:15 NW 5 9.00 Fair CLR 80.6 68 66% 83 29.94 0.0
10 21:55 Calm 10.00 Fair CLR 80.6 69.8 70% 84 29.94 0.0
10 21:35 W 3 10.00 Fair CLR 80.6 68 66% 83 29.93 0.0
10 21:15 W 5 10.00 Fair CLR 82.4 68 62% 85 29.93 0.0
10 20:55 NW 6 10.00 Fair CLR 84.2 68 58% 87 29.92 0.0
10 20:35 NW 6 10.00 Fair CLR 86 66.2 52% 88 29.92 0.0
10 20:15 NW 9 10.00 Fair CLR 86 68 55% 89 29.92 0.0
10 19:55 NW 7 10.00 Fair CLR 87.8 68 52% 91 29.92 0.0
10 19:35 NW 10 G 16 10.00 Fair CLR 87.8 68 52% 91 29.92 0.0
10 19:15 W 13 G 18 10.00 A Few Clouds FEW055 89.6 68 49% 93 29.91 0.0
10 18:55 NW 10 G 17 10.00 A Few Clouds FEW060 89.6 66.2 46% 92 29.91 0.0
10 18:35 NW 12 G 20 10.00 Fair CLR 91.4 68 46% 96 29.91 0.0
10 18:15 W 13 10.00 Fair CLR 91.4 68 46% 96 29.91 0.0
10 17:55 NW 12 G 20 10.00 A Few Clouds FEW055 91.4 68 46% 96 29.91 0.0
10 17:35 NW 9 G 20 10.00 Fair CLR 91.4 68 46% 96 29.9 0.0
10 17:15 NW 12 G 20 10.00 Fair CLR 91.4 68 46% 96 29.9 0.0
10 16:55 NW 10 G 16 10.00 Fair CLR 91.4 68 46% 96 29.91 0.0
10 16:35 W 15 G 22 10.00 Fair CLR 93.2 68 44% 98 29.9 0.0
10 16:15 W 10 10.00 Fair CLR 93.2 68 44% 98 29.9 0.0
10 15:55 NW 9 G 18 10.00 Fair CLR 93.2 69.8 47% 99 29.9 0.0
10 15:35 W 14 G 20 10.00 Fair CLR 91.4 68 46% 96 29.91 0.0
10 15:15 NW 9 10.00 Fair CLR 91.4 68 46% 96 29.91 0.0
10 14:55 W 9 G 20 10.00 Fair CLR 91.4 68 46% 96 29.92 0.0
10 14:35 NW 8 10.00 A Few Clouds FEW050 91.4 69.8 49% 97 29.93 0.0
10 14:15 W 9 G 17 10.00 A Few Clouds FEW050 89.6 69.8 52% 95 29.93 0.0
10 13:55 W 12 10.00 A Few Clouds FEW050 91.4 69.8 49% 97 29.93 0.0
10 13:35 W 9 G 16 10.00 A Few Clouds FEW049 89.6 69.8 52% 95 29.93 0.0
10 13:15 W 13 G 20 10.00 Fair CLR 89.6 69.8 52% 95 29.94 0.0
10 12:55 Vrbl 7 G 13 10.00 Fair CLR 89.6 69.8 52% 95 29.94 0.0
10 12:35 W 12 G 20 10.00 Fair CLR 89.6 69.8 52% 95 29.94 0.0
10 12:15 W 10 G 18 10.00 A Few Clouds FEW043 87.8 68 52% 91 29.95 0.0
10 11:55 W 12 10.00 Fair CLR 87.8 71.6 59% 94 29.95 0.0
10 11:35 W 8 G 18 10.00 Fair CLR 87.8 71.6 59% 94 29.95 0.0
10 11:15 W 8 10.00 Fair CLR 86 71.6 62% 92 29.95 0.0
10 10:55 W 8 10.00 Fair CLR 86 71.6 62% 92 29.96 0.0
10 10:35 NW 9 10.00 Fair CLR 84.2 71.6 66% 90 29.96 0.0
10 10:15 NW 10 G 17 10.00 Fair CLR 84.2 69.8 62% 88 29.96 0.0
10 09:55 W 10 G 17 10.00 A Few Clouds FEW023 84.2 73.4 70% 91 29.95 0.0
10 09:35 NW 12 10.00 Partly Cloudy SCT021 SCT026 84.2 75.2 74% 92 29.96 0.0
10 09:15 W 9 G 18 10.00 Partly Cloudy SCT018 82.4 77 84% 91 29.95 0.0
10 08:55 W 8 10.00 Mostly Cloudy BKN016 82.4 77 84% 91 29.95 0.0
10 08:35 W 7 10.00 Partly Cloudy SCT013 SCT018 82.4 78.8 89% 92 29.95 0.0
10 08:15 Vrbl 5 G 12 10.00 Partly Cloudy SCT012 80.6 78.8 94% 88 29.95 0.0
10 07:55 Vrbl 5 10.00 Fair CLR 78.8 77 94% 83 29.95 0.0
10 07:35 Vrbl 5 10.00 Fair CLR 78.8 77 94% 83 29.94 0.0
10 07:15 Calm 10.00 Fair CLR 77 77 100% 78 29.94 0.0
10 06:35 Calm 10.00 Fair CLR 77 77 100% 78 29.94 0.0
10 06:15 Calm 10.00 Fair CLR 77 77 100% 78 29.93 0.0
10 05:55 Calm 10.00 Partly Cloudy SCT020 78.8 77 94% 83 29.92 0.0
10 05:35 Vrbl 3 10.00 Overcast OVC019 78.8 77 94% 83 29.92 0.0
10 05:15 Vrbl 5 10.00 Overcast OVC015 78.8 77 94% 83 29.92 0.0
10 04:55 Calm 10.00 Overcast OVC016 78.8 77 94% 83 29.92 0.0
10 04:35 Calm 10.00 Partly Cloudy SCT017 78.8 77 94% 83 29.92 0.0
10 04:15 Vrbl 3 10.00 Fair CLR 78.8 77 94% 83 29.92 0.0
10 03:55 Vrbl 3 10.00 Fair CLR 78.8 77 94% 83 29.91 0.0
10 03:35 Calm 10.00 Fair CLR 78.8 77 94% 83 29.92 0.0
10 03:15 Calm 10.00 Fair CLR 78.8 77 94% 83 29.92 0.0
10 02:55 Calm 9.00 Fair CLR 78.8 77 94% 83 29.92 0.0
10 02:35 Calm 10.00 Fair CLR 78.8 77 94% 83 29.92 0.0
10 02:15 Vrbl 3 10.00 Fair CLR 78.8 77 94% 83 29.92 0.0
10 01:15 Calm 10.00 Fair CLR 78.8 78.8 100% 83 29.94 0.0
10 00:55 Calm 6.00 Fog/Mist CLR 78.8 78.8 100% 83 29.94 0.0
10 00:35 Calm 10.00 Fair CLR 78.8 78.8 100% 83 29.95 0.0
10 00:15 Calm 10.00 Fair CLR 78.8 77 94% 83 29.96 0.0
09 23:55 Calm 10.00 Fair CLR 78.8 77 94% 83 29.96 0.0
09 23:35 Calm 10.00 Fair CLR 80.6 77 89% 87 29.96 0.0
09 23:15 Calm 9.00 Fair CLR 78.8 77 94% 83 29.96 0.0
09 22:55 Calm 9.00 Fair CLR 80.6 77 89% 87 29.95 0.0
09 22:35 Calm 9.00 Fair CLR 80.6 77 89% 87 29.95 0.0
09 22:15 Calm 10.00 Fair CLR 80.6 77 89% 87 29.94 0.0
09 21:55 Calm 9.00 Fair CLR 80.6 77 89% 87 29.93 0.0
09 21:35 Calm 10.00 Fair CLR 82.4 77 84% 91 29.93 0.0
09 21:15 Calm 10.00 Fair CLR 82.4 77 84% 91 29.94 0.0
09 20:55 Calm 10.00 Fair CLR 82.4 77 84% 91 29.94 0.0
09 20:35 Calm 10.00 Fair CLR 84.2 77 79% 94 29.94 0.0
09 20:15 Calm 10.00 Fair CLR 84.2 77 79% 94 29.95 0.0
09 19:55 Calm 10.00 Fair CLR 84.2 75.2 74% 92 29.95 0.0
09 19:35 Calm 10.00 Fair CLR 86 75.2 70% 95 29.95 0.0
09 19:15 Vrbl 6 10.00 Fair CLR 87.8 73.4 62% 96 29.94 0.0
09 18:55 Vrbl 6 G 15 10.00 Fair CLR 89.6 75.2 63% 100 29.93 0.0
09 18:35 Vrbl 5 G 15 10.00 Fair CLR 91.4 75.2 59% 103 29.92 0.0
09 18:15 SW 8 G 16 10.00 Fair CLR 91.4 75.2 59% 103 29.93 0.0
09 17:55 Vrbl 7 G 23 10.00 A Few Clouds FEW060 FEW090 93.2 75.2 56% 105 29.92 0.0
09 17:35 Vrbl 7 G 13 10.00 Mostly Cloudy SCT060 BKN070 BKN090 95 75.2 53% 107 29.92 0.0
09 17:15 Vrbl 6 10.00 Mostly Cloudy FEW055 BKN065 BKN080 95 77 56% 110 29.92 0.0
09 16:55 Calm 10.00 Mostly Cloudy BKN065 BKN075 93.2 75.2 56% 105 29.91 0.0
09 16:35 Vrbl 5 10.00 Partly Cloudy FEW048 SCT060 SCT110 93.2 77 59% 107 29.91 0.0
09 16:15 Vrbl 6 10.00 Mostly Cloudy BKN047 BKN060 BKN110 95 77 56% 110 29.92 0.0
09 15:55 Vrbl 5 10.00 Mostly Cloudy BKN047 BKN055 93.2 77 59% 107 29.93 0.0
09 15:35 Calm 10.00 A Few Clouds FEW046 FEW055 FEW070 93.2 77 59% 107 29.93 0.0
09 15:15 Calm 10.00 A Few Clouds FEW070 93.2 77 59% 107 29.93 0.0
09 14:55 Vrbl 5 10.00 A Few Clouds FEW042 FEW050 93.2 78.8 63% 110 29.94 0.0
09 14:35 W 5 10.00 Mostly Cloudy FEW038 SCT045 BKN055 91.4 78.8 67% 108 29.95 0.0
09 14:15 Vrbl 5 10.00 Partly Cloudy SCT034 SCT044 SCT055 91.4 77 63% 105 29.97 0.0
09 13:55 Vrbl 3 10.00 Fair CLR 91.4 78.8 67% 108 29.98 0.0
Date Time (edt) Wind (mph) Vis. (mi.) Weather Sky Cond. Air Dwpt Max. Min. Relative Humidity Wind Chill (°F) Heat Index (°F) altimeter (in) sea level (mb) 1 hr 3 hr 6 hr
6 hour
Temperature (ºF) Pressure Precipitation (in)